GFSMA_500_rhum_108.txt.gz
RH
11 28 31 33 28 29 30 36 38 34 57 86 92 95 94 94 95 100 73 56 60 72 44 18 14 19 42 46 79 92 94 97 84 82 84 81 91 70 65 71 73 75 77
9 10 26 30 24 18 20 24 29 43 66 88 88 97 96 98 88 77 79 70 60 65 52 20 16 30 32 57 84 95 98 91 85 88 93 95 90 83 82 83 83 83 84
10 6 22 19 19 33 30 32 47 48 51 67 91 96 96 97 90 82 75 66 78 73 57 28 36 26 50 76 90 91 89 86 82 91 92 94 90 87 87 90 88 89 86
12 8 17 16 15 26 30 38 47 42 52 76 94 97 97 91 94 89 62 57 64 79 60 54 51 53 64 80 96 95 94 87 83 88 94 94 93 89 83 83 87 89 92
14 10 14 13 12 29 29 36 34 35 45 84 96 97 97 88 94 86 51 53 76 66 35 44 55 68 80 88 91 88 87 92 84 86 85 83 84 84 85 88 86 91 95
17 12 13 11 11 25 25 28 27 30 47 99 97 97 96 98 84 95 60 69 72 61 48 46 56 82 97 93 89 83 86 91 90 93 95 87 77 78 90 88 92 96 96
20 14 13 9 12 16 22 28 27 29 69 96 98 96 93 90 81 73 78 68 85 77 65 72 90 94 96 96 94 89 88 89 91 88 91 93 88 89 89 93 97 99 96
23 15 13 8 14 14 22 24 26 29 85 97 97 96 89 83 81 83 81 87 85 87 87 90 94 98 93 100 97 97 96 94 96 90 86 89 89 86 87 86 84 87 95
25 15 13 9 14 12 19 26 29 41 92 96 97 95 97 88 97 97 95 87 100 96 88 85 89 97 96 93 94 95 93 89 88 94 96 94 91 88 86 93 94 94 96
24 16 13 11 16 15 13 33 34 48 94 97 95 96 97 97 96 96 96 90 100 95 87 88 94 98 97 92 98 98 98 98 97 97 98 97 93 90 90 89 96 97 89
24 17 13 12 17 16 12 27 67 64 93 96 96 96 97 96 92 96 96 96 90 96 99 97 92 99 92 96 99 95 82 81 82 86 85 98 96 88 96 96 96 87 87
25 19 14 12 15 16 18 14 24 50 80 96 96 96 97 97 97 97 96 95 96 94 92 92 95 98 96 89 82 85 92 79 92 92 97 99 97 96 96 95 89 89 95
25 20 14 12 13 13 15 16 16 27 59 75 75 93 96 97 96 96 96 96 96 96 97 96 95 92 82 88 86 84 85 87 92 98 98 96 97 97 96 94 96 95 93
25 19 15 12 10 11 16 16 18 34 58 81 94 97 70 88 92 92 95 94 85 88 97 96 91 93 90 87 94 87 80 83 89 95 96 97 96 97 94 95 96 83 68
25 19 16 12 10 13 20 26 49 54 57 76 94 98 76 94 97 97 89 90 85 76 90 98 92 92 92 89 92 94 89 92 90 89 89 91 92 90 89 88 83 82 79
25 21 17 15 12 15 28 54 69 68 72 70 70 98 99 96 97 97 92 85 97 84 85 92 97 94 93 92 97 92 90 94 91 90 86 81 78 80 81 87 89 96 93
26 23 20 17 15 13 19 19 27 32 46 57 71 98 97 96 96 91 99 96 91 94 94 100 98 96 97 95 68 52 62 73 62 72 59 50 49 53 51 65 77 89 76
27 26 22 23 17 14 15 20 19 19 19 21 25 50 82 95 94 86 87 98 96 97 96 98 86 55 34 29 34 29 34 30 34 44 46 45 42 46 52 52 55 61 56
31 28 30 31 22 17 16 16 17 18 19 22 24 28 28 30 28 26 32 53 62 68 60 46 30 31 36 37 37 38 40 41 42 43 40 34 29 26 24 25 26 26 29
54 28 28 30 28 22 18 20 22 21 18 16 16 18 20 23 26 28 32 34 37 38 39 41 40 37 34 30 28 29 27 26 26 27 30 35 39 40 39 39 40 44 52
70 61 48 32 26 26 24 18 18 22 23 23 23 23 24 24 24 23 22 23 21 21 21 24 27 31 33 33 34 36 35 41 44 44 48 51 52 53 58 66 74 75 67
95 56 78 80 47 28 27 26 19 19 19 20 22 23 25 26 28 31 33 32 31 31 31 32 35 38 45 50 59 67 72 80 94 95 92 94 94 88 83 78 82 93 100
98 69 81 86 80 42 31 34 28 22 20 20 23 25 28 35 40 52 73 78 79 77 81 80 80 77 83 86 81 88 94 94 94 98 100 100 99 96 93 90 89 97 100
100 86 76 84 100 98 97 50 34 28 26 25 31 38 49 68 81 86 85 84 82 80 83 82 80 94 95 98 98 100 98 99 98 92 95 97 100 99 100 98 100 99 99
98 94 94 97 98 98 97 81 47 38 34 51 75 83 95 96 97 99 91 88 89 77 75 76 80 95 91 68 73 86 98 99 99 97 100 99 99 98 96 99 99 97 94
96 97 97 97 98 98 97 97 90 46 65 76 94 96 95 95 97 99 93 88 70 65 69 94 75 78 80 60 49 91 98 100 68 52 99 99 100 97 44 31 27 19 10

GFSMA_500_rhum_114.txt.gz
RH
6 7 12 13 13 8 25 33 36 31 15 16 24 26 34 41 68 90 97 98 95 99 96 95 79 21 20 16 17 16 29 53 77 95 96 92 70 75 85 93 82 78 43
8 7 10 14 14 11 10 23 19 22 29 29 29 25 34 43 73 81 82 96 97 96 95 89 50 39 27 88 17 18 44 57 81 97 94 88 85 87 98 94 91 83 90
12 10 10 12 17 14 12 15 15 13 14 28 33 35 37 42 47 61 84 97 97 96 95 95 81 54 64 46 16 25 39 64 81 98 91 90 93 97 95 97 94 92 94
15 12 11 11 21 21 14 12 14 10 8 25 35 38 40 36 48 84 93 96 97 96 96 92 71 74 45 69 29 23 29 72 97 100 96 94 95 98 100 100 98 98 99
14 16 13 14 23 27 18 13 13 8 9 17 23 22 26 29 40 95 97 97 98 100 96 47 70 66 58 26 15 21 35 73 94 98 99 98 94 93 98 100 100 98 100
16 17 17 18 23 31 25 15 12 8 13 17 24 21 19 25 59 97 97 97 90 79 76 77 65 72 81 56 32 41 69 74 92 92 96 97 100 94 97 97 99 99 97
19 18 21 18 20 34 30 16 12 8 12 16 21 26 17 22 65 98 97 98 98 89 78 74 77 70 78 82 27 66 93 96 99 91 93 97 100 96 94 95 98 100 96
25 22 24 20 20 34 34 18 13 8 11 14 16 21 20 23 26 95 97 98 96 85 74 65 68 76 77 64 19 73 87 86 94 98 93 92 98 99 98 99 99 99 96
25 26 27 22 22 36 37 19 13 9 10 15 15 25 32 44 55 91 97 98 94 92 68 53 81 75 63 48 39 83 97 97 97 94 90 92 96 99 93 95 96 97 94
26 30 31 25 23 38 39 19 14 10 12 16 15 37 44 77 83 89 94 90 95 97 86 66 67 77 83 74 72 92 94 100 100 94 93 92 94 95 97 97 97 98 98
28 32 34 29 26 39 44 21 14 11 11 16 16 24 67 93 100 96 94 95 95 97 92 96 86 88 88 86 90 90 93 98 98 100 86 88 97 97 97 98 96 99 98
26 29 36 32 29 43 49 23 15 12 10 13 17 18 65 95 97 96 96 97 97 97 97 97 97 95 95 95 97 93 98 97 100 100 97 98 99 99 96 96 98 96 97
27 44 47 32 36 47 51 25 15 12 10 11 14 18 64 68 98 97 97 97 97 97 97 97 97 97 97 97 97 94 92 93 96 97 98 97 98 92 88 97 100 99 98
18 42 45 35 41 52 51 26 16 12 10 12 15 19 36 85 96 98 97 97 97 97 96 97 94 96 96 98 96 93 96 100 98 97 97 97 96 96 98 99 100 99 94
16 22 31 36 45 56 54 24 17 13 11 19 21 25 52 74 98 98 97 97 97 97 99 95 98 100 96 95 98 99 98 97 96 98 96 97 96 98 93 97 92 95 94
25 20 29 36 58 63 53 23 18 14 13 58 48 45 68 86 86 94 96 97 99 96 94 94 96 97 97 97 97 97 97 97 97 97 97 100 99 97 95 93 93 83 72
58 34 34 45 67 72 52 22 18 16 15 38 84 77 73 67 78 96 86 97 97 97 97 94 97 94 95 96 95 96 96 95 97 97 98 98 96 73 76 68 53 35 34
66 43 33 57 81 80 52 23 20 18 15 20 40 61 61 69 62 74 98 94 94 97 96 99 97 98 98 98 97 92 95 99 98 97 87 46 39 34 29 31 36 40 47
97 91 38 64 97 86 56 25 21 19 18 17 21 23 21 28 56 89 90 90 97 97 97 97 97 98 97 98 98 95 98 92 64 33 30 25 30 34 36 40 40 32 26
96 77 51 76 94 94 52 26 22 22 20 19 18 22 23 23 22 28 62 84 90 99 96 90 94 97 97 98 97 94 88 46 34 34 36 39 33 26 27 28 31 35 37
97 77 59 81 94 100 50 30 25 25 25 21 20 20 18 17 18 21 22 25 27 28 26 27 40 75 74 72 59 44 36 42 45 37 30 24 27 33 35 37 42 48 66
95 64 73 87 97 100 56 32 29 28 28 29 25 22 23 21 19 19 19 20 20 20 20 20 24 28 35 36 35 38 36 28 26 25 28 32 41 54 64 71 77 80 82
91 83 76 81 88 98 90 46 27 25 28 27 26 26 22 22 23 23 25 26 25 26 26 28 28 28 28 29 28 28 31 34 36 39 44 54 65 77 79 80 84 90 95
85 97 94 91 93 98 98 72 43 35 43 54 40 27 27 30 24 21 22 25 25 25 27 29 31 34 39 55 73 83 89 91 91 90 90 84 85 91 82 59 53 61 75
78 93 84 97 98 99 100 98 95 60 51 59 76 76 50 94 96 48 26 23 24 24 26 29 34 44 62 84 95 96 96 92 87 94 100 99 100 100 92 82 79 84 59
79 89 89 93 96 96 98 95 97 96 91 64 70 85 95 99 99 98 94 35 25 25 27 34 51 91 98 98 100 98 98 97 90 88 92 100 100 98 89 96 96 73 31

GFSMA_500_rhum_117.txt.gz
RH
12 11 9 7 8 10 12 10 8 15 28 20 17 23 21 24 26 33 46 94 94 100 92 97 93 93 71 44 28 28 48 18 28 53 75 94 92 58 57 84 91 96 82
13 13 13 12 8 9 13 14 11 10 12 12 12 11 20 29 29 37 72 76 88 93 98 97 97 93 86 22 19 18 38 24 37 55 79 94 92 76 85 93 99 94 88
15 16 16 16 12 9 12 18 16 12 11 11 9 9 19 23 39 44 48 50 64 79 96 98 97 96 92 65 40 29 53 31 47 52 75 94 91 92 88 97 99 99 96
18 18 18 18 15 12 11 20 21 16 12 11 7 8 16 17 33 40 47 55 59 90 98 97 92 93 61 35 44 69 28 34 43 55 88 96 91 93 92 90 94 99 96
20 22 19 18 17 15 12 14 25 20 15 11 6 10 15 18 18 28 37 38 94 96 96 97 94 95 89 63 65 66 31 25 29 61 92 94 89 91 94 93 89 89 95
20 23 22 20 20 18 15 12 22 25 17 12 7 11 16 18 19 26 25 42 91 98 97 93 96 96 80 75 54 48 21 22 29 65 87 92 90 89 94 93 89 92 95
21 24 23 22 21 22 20 14 21 28 20 14 8 8 15 16 18 21 30 83 96 97 96 86 100 62 66 70 74 56 18 34 46 79 82 89 87 85 86 88 91 93 92
30 28 26 26 27 24 20 15 22 30 23 14 8 8 13 15 20 27 31 87 98 94 91 88 91 65 68 59 82 89 63 29 77 91 95 93 96 90 87 86 90 91 91
44 33 29 27 34 31 23 18 18 29 25 15 9 10 13 16 26 34 52 83 97 97 99 96 85 82 70 77 67 81 70 22 69 89 80 93 93 96 99 96 96 94 87
59 32 31 30 39 38 27 20 16 33 28 16 10 11 12 15 27 40 52 72 95 96 97 89 76 82 70 64 74 62 36 25 64 95 90 93 93 95 96 95 95 90 89
42 35 31 29 40 44 33 22 14 29 31 18 11 9 11 15 20 57 86 89 84 97 97 90 84 66 64 80 75 63 57 52 77 92 94 97 96 96 91 94 91 97 99
49 43 32 31 39 43 37 25 17 34 34 18 11 8 9 13 18 57 97 98 100 94 98 98 96 92 80 75 80 87 82 76 80 86 92 97 92 97 88 97 99 97 92
66 43 42 32 35 40 38 28 18 35 37 19 11 9 9 10 17 53 84 96 93 96 96 97 96 98 97 97 96 95 93 86 90 92 96 97 96 97 97 97 97 91 86
72 62 43 36 26 30 43 29 21 41 37 18 11 9 10 10 16 61 65 97 99 96 97 98 97 97 97 97 97 97 99 97 97 97 96 96 98 97 96 96 98 92 92
55 57 46 37 22 28 44 28 25 43 38 17 11 10 13 13 21 64 85 97 97 96 96 97 97 97 96 95 95 94 97 90 94 96 96 97 98 98 97 98 97 95 94
54 49 58 38 31 38 43 29 31 51 38 18 12 11 22 39 50 64 93 96 95 97 97 97 97 92 92 88 88 94 95 95 92 97 97 96 96 95 97 94 92 96 93
69 75 65 60 38 32 46 34 36 51 40 20 14 14 22 37 74 76 94 94 97 96 97 97 93 93 97 97 98 97 97 98 98 97 97 96 95 94 90 95 97 82 86
67 81 86 77 53 40 46 43 37 52 43 22 16 14 18 26 47 72 84 86 93 97 96 96 95 97 96 97 98 97 98 98 97 96 96 96 92 99 96 94 56 55 36
79 88 94 95 84 70 49 46 46 60 49 23 18 15 17 20 26 51 75 66 96 96 97 98 98 96 95 97 97 98 98 97 98 95 94 95 95 82 49 32 33 34 37
80 94 96 94 95 96 77 63 74 71 53 26 20 18 16 18 19 19 25 62 92 96 95 96 98 98 97 98 97 97 98 98 96 96 86 73 66 34 33 37 38 38 33
78 83 89 91 97 96 93 73 90 87 59 32 22 22 19 17 16 18 20 23 39 86 96 98 97 98 97 97 97 99 97 98 96 90 66 46 38 38 37 29 27 30 34
69 67 66 87 99 97 69 60 89 91 69 40 24 24 22 19 20 18 20 19 19 20 23 27 32 32 31 38 55 84 84 78 74 51 38 38 39 30 28 31 38 45 56
58 48 58 97 100 76 76 77 72 98 87 45 25 23 26 27 21 20 21 23 23 23 23 21 21 23 24 25 25 28 35 36 35 33 33 30 32 37 42 45 50 64 81
43 48 92 76 94 90 82 75 77 83 96 58 34 26 23 25 27 27 22 20 21 22 24 25 27 28 29 29 30 32 35 38 43 52 57 54 71 84 90 95 99 100 100
46 99 95 72 97 82 95 76 82 95 95 95 70 42 36 28 24 26 29 34 37 27 25 25 25 28 28 28 30 33 37 42 51 79 94 95 90 90 89 85 84 90 98
90 76 77 71 76 100 90 95 94 93 100 98 98 85 55 64 76 69 38 42 87 92 92 84 42 27 27 29 29 33 39 60 88 97 96 99 92 90 92 97 99 100 93

GFSMA_500_rhum_123.txt.gz
RH
18 14 14 12 10 8 8 8 5 5 7 8 7 7 8 7 6 7 9 15 19 26 82 97 96 96 90 92 99 56 25 22 30 60 30 18 32 58 79 84 40 70 77
22 20 16 15 14 12 9 10 10 6 5 7 8 8 8 10 8 5 6 16 15 19 44 94 97 97 97 89 97 62 44 28 29 32 46 17 27 54 76 78 73 74 77
26 21 19 17 17 16 13 11 12 12 7 6 7 8 8 10 10 6 6 14 13 13 25 76 96 97 96 98 98 94 65 36 24 41 51 20 29 50 79 86 88 82 77
37 24 22 21 19 20 18 14 12 13 14 9 6 8 10 11 12 8 6 12 14 16 29 37 51 64 93 97 97 93 80 43 26 22 28 57 31 52 70 80 86 86 82
42 32 26 24 23 24 21 18 15 14 13 14 11 8 11 14 13 12 6 9 15 18 16 36 40 45 56 95 97 98 96 76 29 45 42 49 32 35 71 85 88 84 80
47 39 31 27 26 28 23 21 20 17 17 16 16 11 12 15 17 14 7 6 12 16 19 25 27 35 61 77 94 97 97 84 76 47 52 24 29 28 63 83 88 87 80
50 43 34 29 28 31 28 26 25 22 21 20 17 16 13 17 20 16 9 5 9 14 15 13 15 18 47 96 94 98 97 95 37 65 52 25 34 26 50 77 87 86 86
60 53 41 35 32 34 35 30 31 26 25 22 18 17 15 18 23 19 12 6 9 13 16 17 19 23 49 95 94 97 94 47 39 60 57 49 23 26 53 75 83 85 84
78 70 55 45 44 36 37 37 37 30 29 25 21 19 15 17 25 21 15 7 8 14 26 31 39 69 97 97 93 97 89 82 63 50 46 28 18 31 64 84 83 86 84
67 57 51 48 39 45 48 76 60 55 32 30 26 20 17 14 22 30 18 10 6 14 20 30 46 48 96 96 97 92 91 90 72 61 53 55 41 39 47 87 85 81 86
70 74 83 57 68 80 87 98 79 38 34 32 32 24 18 15 14 30 21 12 6 10 15 31 32 63 96 96 97 100 89 72 71 69 78 80 76 49 42 67 84 90 91
58 60 93 91 95 97 96 97 87 46 39 32 33 33 24 22 12 29 26 13 8 9 13 22 62 80 98 96 98 97 78 68 73 61 72 67 78 68 35 22 43 88 90
51 72 83 88 74 89 99 97 94 67 55 48 39 38 28 30 15 26 32 15 8 9 12 18 67 83 98 98 99 97 92 71 72 68 71 68 75 74 69 62 60 76 84
72 66 72 95 94 95 95 96 97 95 70 55 42 47 40 35 19 21 34 16 7 10 12 32 85 80 96 97 96 96 85 77 71 80 92 93 93 94 96 94 92 89 91
81 92 87 95 94 78 96 82 84 87 89 74 49 43 48 45 27 23 37 16 8 16 18 42 63 99 93 99 97 96 97 87 88 89 92 96 95 96 97 97 98 98 97
74 79 84 91 73 63 84 97 98 93 85 70 65 46 56 55 29 25 40 17 12 29 37 69 79 100 99 97 97 97 98 97 98 100 98 98 96 98 100 98 99 98 98
70 75 78 80 74 60 58 72 81 79 88 70 76 56 85 63 32 27 43 17 16 39 55 57 87 97 96 97 97 97 97 98 97 98 96 94 93 95 98 98 98 93 90
55 52 60 68 69 75 73 76 83 79 80 85 97 94 90 64 42 28 48 20 16 28 53 69 78 99 93 97 96 96 96 96 96 95 96 96 96 97 96 95 90 94 93
64 59 54 51 58 56 58 69 75 77 78 88 94 97 94 68 42 30 53 27 16 21 32 64 77 90 98 97 97 97 96 95 90 91 92 92 85 82 86 85 89 90 96
55 60 58 51 37 31 25 45 71 74 72 86 96 99 97 90 60 34 55 39 18 17 22 37 74 89 99 98 96 97 96 96 94 94 89 88 85 85 91 95 98 97 97
61 59 50 47 49 44 49 64 55 57 81 98 96 100 98 94 58 39 45 55 24 18 19 21 55 51 87 98 97 98 98 98 98 97 99 97 97 97 95 98 96 99 99
55 61 64 62 66 62 62 52 50 76 96 100 100 100 100 98 87 41 46 66 40 20 18 19 25 21 76 95 99 98 98 97 93 97 100 100 100 97 98 96 96 99 99
62 47 27 26 37 98 60 73 97 92 84 96 99 100 89 99 98 85 59 77 68 28 22 21 18 21 25 58 95 97 98 97 97 98 98 98 98 98 98 99 99 99 79
29 41 25 21 20 36 64 93 98 90 91 97 97 96 97 94 99 75 63 83 90 53 29 29 24 21 22 24 24 27 34 42 52 46 38 35 30 30 34 42 42 34 33
16 15 15 26 24 21 36 83 99 88 82 98 97 98 93 81 96 91 70 88 98 96 56 32 32 31 27 24 26 29 31 29 27 27 28 28 28 30 30 31 34 37 41
64 39 35 44 52 47 57 66 72 71 64 66 98 84 96 99 93 88 78 90 94 100 96 76 34 32 34 31 30 24 26 29 33 32 32 33 34 35 32 32 31 34 42

GFSMA_500_rhum_129.txt.gz
RH
20 26 29 38 32 20 32 16 13 12 15 11 6 6 14 16 11 8 12 31 11 18 19 10 16 77 84 96 96 95 96 97 93 74 57 23 28 31 47 23 27 68 72
19 24 28 32 33 26 49 50 23 16 16 12 13 7 7 8 11 12 14 19 24 11 9 13 17 20 28 50 96 96 96 95 84 62 27 23 27 47 34 20 37 66 78
23 23 26 29 33 28 36 35 24 24 25 15 20 26 24 16 6 8 8 12 34 12 15 34 27 25 49 80 73 94 96 93 75 63 22 22 35 50 37 22 31 68 75
29 23 23 26 32 36 32 24 19 20 22 24 16 20 25 23 21 10 9 10 26 15 18 12 26 32 28 39 37 78 95 96 93 61 19 22 31 48 34 32 28 66 74
32 32 26 24 31 35 39 32 24 21 21 21 23 18 16 30 26 26 21 18 10 11 13 12 10 10 24 35 47 33 37 74 89 91 28 23 27 37 45 45 27 49 74
35 36 34 29 30 34 41 42 37 27 26 23 24 22 19 18 18 16 13 11 14 13 13 38 36 29 26 29 35 44 41 48 52 92 70 37 29 29 45 42 45 43 62
39 40 39 35 32 35 42 42 43 39 30 25 25 26 26 23 22 22 18 14 13 12 14 14 28 34 32 28 19 17 29 29 52 53 96 80 70 25 35 43 48 41 43
36 40 43 42 39 51 54 50 48 48 40 30 23 29 29 30 27 25 25 22 16 13 14 15 15 14 13 18 24 21 20 26 35 45 87 96 78 63 35 47 55 34 34
40 41 46 52 52 57 66 60 58 57 57 46 28 27 30 36 34 28 31 29 23 17 15 15 20 18 11 8 19 33 32 35 30 32 80 96 97 96 74 53 52 34 29
50 46 52 52 59 61 58 63 62 61 63 66 48 35 33 40 54 40 31 32 27 21 17 12 16 20 15 8 14 29 26 38 45 58 72 99 96 96 65 64 66 42 31
54 55 57 50 50 62 76 73 72 68 62 60 54 49 40 47 68 58 32 26 33 28 23 17 12 20 19 10 14 9 13 24 30 59 100 98 97 97 71 69 78 54 26
61 69 62 64 67 52 72 77 70 62 63 90 60 62 78 96 88 70 42 42 27 25 27 30 15 17 19 14 19 36 24 24 35 63 87 96 97 96 90 85 50 43 23
71 76 79 68 68 61 71 71 68 62 58 55 64 93 97 95 96 92 72 69 52 41 24 30 21 15 18 22 13 9 10 22 62 90 99 97 96 91 95 53 37 61 63
74 77 68 57 69 68 76 77 73 67 60 59 68 91 99 89 90 97 96 83 74 50 38 41 29 22 18 13 9 10 10 18 70 92 97 97 97 92 72 49 49 63 78
75 87 84 62 82 80 84 92 81 67 62 69 89 95 98 97 95 97 90 87 83 74 61 47 41 27 19 14 12 14 16 36 78 74 97 97 98 94 91 66 68 70 65
81 88 87 86 72 75 87 87 87 75 73 82 92 96 96 96 98 97 96 88 82 87 74 58 60 29 22 18 12 28 42 72 78 98 97 97 98 97 91 65 62 56 58
65 70 88 70 68 98 94 96 91 81 79 88 94 97 86 86 77 77 93 93 88 80 80 76 77 44 31 26 13 18 39 53 87 99 99 97 97 96 97 91 83 91 94
84 94 88 60 49 88 85 86 94 81 73 76 88 95 93 97 84 96 97 97 95 95 93 97 94 73 29 28 18 11 25 57 81 94 98 96 96 97 97 96 96 89 92
83 65 64 82 77 64 84 86 92 95 91 88 97 97 97 96 92 96 97 96 96 96 98 89 98 86 44 31 25 11 14 55 69 89 98 98 98 97 97 98 97 98 100
58 48 86 95 100 91 79 93 99 97 96 84 71 86 89 93 97 98 95 85 92 94 98 87 93 92 67 32 29 15 13 29 64 83 95 97 96 97 96 97 97 98 98
97 98 99 99 98 97 97 98 98 95 89 78 74 68 82 87 82 80 75 64 85 85 91 89 94 90 95 41 34 23 14 21 59 81 99 96 96 96 96 96 97 97 97
75 74 86 92 80 86 93 96 97 96 89 88 79 74 73 60 52 54 39 47 72 73 82 96 97 89 100 85 36 35 17 14 26 84 99 97 94 96 97 97 97 97 97
45 57 83 86 97 91 84 76 63 65 67 75 81 65 54 46 48 50 53 60 63 65 88 98 100 96 100 100 52 38 29 15 17 35 38 100 97 95 97 97 99 96 93
68 59 46 39 34 29 34 49 57 59 58 50 49 56 60 55 54 53 69 96 98 73 78 91 98 96 96 100 92 51 47 24 15 14 22 27 68 98 100 99 97 97 98
78 88 100 100 93 78 51 28 18 25 34 52 99 96 100 98 97 94 90 90 100 99 97 98 89 96 97 98 98 67 66 42 23 19 16 19 22 25 34 58 96 97 98
26 28 26 28 37 57 79 89 78 58 31 27 32 48 74 94 70 96 97 98 98 100 99 96 96 98 97 92 100 85 76 68 40 29 25 23 21 22 24 22 24 51 82

GFSMA_500_rhum_132.txt.gz
RH
23 25 26 22 26 29 32 32 40 34 15 14 17 15 12 6 11 17 27 20 21 22 12 8 15 13 16 48 32 87 96 95 96 87 87 88 37 31 31 36 41 27 31
24 22 21 19 23 28 28 29 38 54 53 33 20 16 14 10 8 8 12 20 32 27 15 12 23 30 25 29 68 65 76 84 97 94 97 89 36 39 26 31 43 22 35
24 22 21 24 20 23 27 29 30 34 36 33 22 21 17 27 23 19 9 8 19 28 20 15 15 15 28 38 34 54 33 81 87 96 95 80 63 27 26 30 47 21 34
24 27 26 25 25 21 22 28 33 32 31 23 24 20 19 20 23 26 29 30 23 18 26 22 14 13 10 13 26 28 29 78 99 97 93 73 52 23 25 39 47 26 26
28 28 28 28 26 28 25 28 30 32 31 30 21 19 19 21 21 18 25 22 21 19 27 24 29 35 37 30 21 25 40 32 38 53 92 91 90 26 25 43 46 36 27
29 32 34 31 31 31 30 30 32 31 36 35 34 24 19 21 21 20 19 20 19 15 12 13 20 24 29 34 34 34 32 31 30 35 45 59 92 40 24 30 43 46 34
34 35 40 38 35 39 38 34 34 34 42 42 42 39 29 20 23 25 27 24 23 22 20 14 14 16 18 23 19 18 25 22 17 29 30 50 65 91 26 29 40 42 41
34 42 41 43 39 38 41 40 37 41 50 51 44 45 44 32 23 27 28 32 28 27 26 22 17 15 18 20 24 14 17 25 22 22 25 28 49 95 82 32 44 36 40
26 46 40 42 45 43 44 47 50 55 58 55 56 57 53 52 30 30 31 40 47 30 29 27 20 15 13 15 22 20 17 14 26 34 41 36 42 65 96 96 82 80 60
22 33 30 40 44 48 46 53 63 65 60 60 66 68 63 56 47 38 35 43 74 48 34 32 28 24 15 11 19 22 19 10 25 23 36 49 45 43 76 97 96 95 92
38 24 50 56 53 56 55 45 66 68 62 67 72 78 76 69 59 44 37 34 64 68 38 37 35 32 28 22 13 18 20 23 24 10 13 23 34 54 62 97 96 96 69
37 49 73 64 61 66 69 53 50 62 65 67 59 65 72 67 97 89 61 76 87 60 41 43 46 36 28 28 17 18 22 36 16 29 19 34 52 53 67 95 99 96 69
83 56 98 82 74 68 85 63 62 68 67 67 63 63 65 75 66 86 84 81 96 93 75 56 67 47 37 36 23 14 22 14 10 9 8 15 45 87 86 90 98 98 80
77 69 97 80 65 78 100 79 72 59 73 80 79 76 83 84 70 89 95 92 93 90 86 82 64 58 43 43 27 14 18 16 11 11 12 17 63 82 98 97 95 96 96
97 100 97 98 86 86 68 69 51 55 79 78 85 77 86 90 76 75 89 84 97 94 82 92 77 81 63 50 46 30 17 17 14 23 38 64 69 80 97 97 95 94 89
94 96 96 95 94 66 67 60 70 63 65 71 74 75 92 99 94 96 96 92 90 91 87 95 85 89 90 66 64 63 23 18 15 28 43 47 80 88 94 97 97 95 92
99 89 94 94 94 91 66 60 61 77 61 74 81 78 92 97 97 95 94 86 90 85 87 99 98 90 85 88 86 87 55 19 20 14 42 64 81 99 99 98 96 98 94
97 97 88 83 100 92 75 79 84 78 52 59 76 69 78 100 94 92 96 95 99 98 94 89 97 97 93 86 86 98 91 29 24 15 13 55 78 92 98 99 98 97 98
95 84 82 97 96 57 45 48 58 55 60 59 60 75 76 100 94 90 89 86 92 90 88 90 96 97 94 98 92 92 91 68 26 23 11 25 64 92 98 99 97 97 97
86 100 92 62 63 85 53 34 32 28 57 68 64 80 90 94 96 97 93 99 95 82 78 80 80 80 81 95 93 94 86 81 41 26 16 10 40 75 98 100 97 97 97
88 81 58 62 63 53 68 80 38 47 82 72 70 90 87 100 99 97 94 86 81 81 79 97 91 63 67 84 96 93 84 86 72 30 26 13 21 67 88 93 97 96 96
69 63 64 68 72 100 70 78 79 72 84 93 100 97 98 99 96 97 90 73 72 67 64 71 81 50 59 68 91 90 86 85 84 59 32 20 13 36 77 98 91 95 95
97 88 86 99 95 96 98 97 100 98 97 99 98 99 99 97 97 97 87 77 74 68 60 48 43 44 52 56 62 96 96 84 92 87 46 29 16 18 56 76 83 90 97
88 79 60 49 53 48 52 74 84 88 62 91 98 95 97 93 94 97 80 89 68 58 68 47 48 57 91 92 83 78 90 92 85 75 79 40 26 17 22 32 82 87 90
64 63 67 70 78 86 83 91 83 67 63 48 34 30 38 30 93 65 53 72 65 61 56 55 62 61 98 84 98 91 94 96 96 97 100 72 44 25 17 18 25 46 87
33 28 24 23 22 22 22 23 23 23 33 49 66 75 70 51 34 33 48 80 97 97 98 98 87 92 96 99 98 98 92 94 97 87 92 98 71 45 25 19 18 22 21

GFSMA_500_rhum_135.txt.gz
RH
24 22 22 23 27 24 26 31 30 33 38 43 34 18 16 16 18 23 9 16 17 15 19 14 12 17 27 20 16 41 80 94 96 94 95 87 76 61 27 39 39 48 44
21 23 23 23 25 22 23 27 28 29 33 41 46 37 31 23 16 20 19 19 12 9 16 15 15 14 17 23 28 37 68 73 73 92 91 96 79 84 56 29 32 39 38
18 20 22 23 24 25 23 22 24 23 29 32 26 26 23 29 17 17 22 20 22 27 25 20 17 17 13 12 12 19 21 30 42 92 100 98 96 95 78 33 34 39 32
15 17 20 23 25 27 27 23 22 22 30 34 32 31 25 24 20 18 22 24 29 32 24 21 24 24 24 29 37 15 11 24 45 53 90 96 96 97 73 48 32 43 38
21 16 20 26 27 25 30 28 26 25 25 27 30 34 33 28 22 20 19 19 17 18 18 19 15 13 12 25 30 42 31 23 62 28 30 43 81 96 74 57 33 35 39
28 26 20 27 31 27 31 33 31 29 29 31 31 33 38 39 37 26 20 21 23 26 23 24 20 16 13 12 14 25 29 30 31 25 31 32 40 54 85 96 43 44 39
59 38 23 27 31 34 33 33 36 35 33 34 30 36 44 46 44 42 35 24 24 27 30 28 26 24 20 14 11 12 23 18 21 26 32 16 27 31 75 89 92 40 38
82 50 20 19 32 38 39 36 38 40 39 38 35 35 50 50 52 51 50 40 26 28 30 40 33 27 26 21 15 10 13 15 27 29 43 29 18 21 34 95 96 66 36
99 64 18 25 36 36 45 43 42 42 40 40 42 41 46 54 56 61 60 58 49 37 31 45 58 35 31 27 21 14 9 11 22 30 39 46 37 34 30 34 49 86 66
89 96 76 32 39 34 47 50 47 48 45 42 41 46 49 61 68 64 69 62 56 51 45 43 56 61 37 30 27 23 19 11 12 17 14 30 38 27 50 51 56 46 83
75 98 96 72 33 46 56 59 55 50 50 55 54 59 47 45 59 56 59 68 86 86 69 86 93 78 50 39 44 31 22 22 10 15 22 22 22 11 22 31 36 57 52
44 76 94 90 60 50 61 68 65 54 55 59 58 50 56 53 65 54 53 63 70 70 94 76 78 94 84 60 46 39 21 22 15 12 20 12 11 20 14 28 35 51 80
37 78 97 93 83 55 53 88 72 60 62 62 67 63 67 62 62 63 58 69 70 81 84 85 76 88 89 88 63 57 38 32 20 10 14 11 7 7 10 14 46 85 97
45 50 97 97 81 72 59 85 75 73 71 80 69 68 82 60 57 62 59 60 81 79 80 97 95 84 92 86 85 85 53 42 30 16 14 13 9 11 15 23 69 83 91
84 78 91 98 93 84 95 94 84 97 100 100 88 84 69 65 46 54 48 54 81 92 97 97 90 90 90 89 100 96 83 58 51 46 19 15 12 16 47 61 67 86 97
28 97 98 96 100 81 97 98 95 96 97 98 98 95 83 86 46 58 69 76 80 97 96 99 96 82 81 84 96 99 100 90 68 65 46 19 16 12 22 51 84 81 89
41 81 95 92 89 93 99 98 94 87 94 91 82 75 72 66 70 77 65 72 95 87 93 99 95 92 96 95 98 94 94 98 92 86 76 26 20 13 14 41 90 89 78
98 93 94 97 98 97 97 92 94 94 95 80 73 58 59 72 57 47 58 68 78 87 86 98 96 96 96 97 98 91 97 99 100 85 86 64 22 21 10 31 67 84 84
77 92 91 93 98 93 95 85 91 98 100 97 78 51 32 45 42 40 48 49 62 74 77 71 97 96 95 96 93 86 95 90 100 88 84 76 53 23 16 13 41 80 91
54 68 78 90 93 98 97 92 88 88 79 59 51 34 23 21 26 34 46 49 55 66 81 81 92 96 95 94 82 77 92 84 86 82 86 88 79 46 24 13 24 65 90
66 80 98 99 99 97 98 99 97 81 56 32 26 25 23 30 19 14 24 30 51 68 77 89 95 95 96 87 89 98 96 85 73 80 82 88 86 80 41 22 11 27 67
90 82 59 79 100 91 88 74 80 45 39 43 61 76 62 58 32 30 34 45 86 98 98 99 96 98 92 100 99 95 91 75 64 79 78 86 80 91 87 49 20 14 50
89 96 100 96 88 84 61 56 59 75 59 100 99 100 100 100 74 56 95 89 89 88 99 100 97 97 91 84 76 77 89 63 50 52 62 60 82 89 91 96 47 19 18
100 100 100 100 100 100 100 99 92 90 77 65 78 88 92 99 97 98 100 98 97 98 97 100 96 98 92 78 72 70 54 50 58 92 80 68 89 80 84 90 84 41 19
91 83 74 54 62 78 75 72 63 63 66 66 64 63 67 69 67 58 47 62 93 93 95 97 92 96 94 86 86 100 82 57 52 43 80 82 72 81 83 99 89 75 36
21 34 38 31 35 35 29 26 28 24 27 25 25 27 27 27 30 30 34 46 53 60 50 83 88 81 82 86 66 61 63 69 66 77 82 97 77 83 86 89 86 94 67

GFSMA_500_rhum_138.txt.gz
RH
26 23 24 25 23 21 25 26 28 32 30 33 35 39 46 28 20 18 14 13 9 15 14 15 19 14 14 15 17 22 45 70 100 98 98 100 78 73 77 63 61 43 43
33 24 21 23 24 23 24 26 24 31 30 30 30 32 42 40 26 27 19 17 23 22 18 27 22 26 17 13 12 12 32 36 64 87 87 96 100 90 76 66 37 40 39
52 27 24 20 23 23 22 23 21 22 26 28 29 29 28 28 23 24 22 19 19 21 26 35 27 22 25 18 18 25 18 12 15 17 32 81 93 99 85 84 67 32 33
87 56 25 20 21 23 22 23 25 22 22 25 28 30 27 29 31 27 20 19 19 21 20 21 18 18 15 14 13 21 25 29 19 22 32 78 89 87 98 87 92 54 31
95 88 49 26 24 23 21 27 26 24 23 24 25 28 28 29 34 38 36 27 21 22 21 23 26 23 20 15 12 14 18 27 30 24 27 23 19 40 84 96 97 79 35
91 97 73 41 29 25 24 24 28 25 28 26 26 29 30 28 30 41 44 41 36 26 24 25 28 31 29 23 20 15 13 14 18 21 20 30 23 15 24 69 85 90 80
72 96 97 78 51 27 30 31 33 21 27 32 29 29 34 34 32 44 46 45 48 49 37 25 28 32 36 33 26 24 18 11 17 20 25 29 32 33 18 16 28 54 68
42 52 81 95 70 28 35 33 34 32 31 31 30 33 32 34 42 45 50 57 58 60 61 50 34 31 46 55 38 30 26 20 12 19 21 42 33 34 32 19 19 23 84
44 56 97 95 94 34 31 31 40 36 35 37 33 24 25 36 43 53 56 60 64 59 66 62 50 42 42 48 59 46 32 25 21 13 14 35 35 26 33 35 30 28 30
28 72 86 70 84 89 49 23 33 39 39 36 40 32 27 30 41 52 62 58 67 62 58 73 82 73 80 84 80 66 41 34 34 25 21 14 21 16 19 36 33 31 51
16 46 38 24 68 92 94 65 36 35 37 42 39 41 35 27 33 45 53 56 59 73 60 66 71 84 98 89 96 87 60 43 45 33 24 18 11 20 18 16 18 17 39
8 17 40 28 97 96 95 77 61 51 38 48 46 46 45 41 39 38 47 57 59 76 78 69 68 85 96 96 85 89 90 86 71 43 34 28 12 14 13 8 11 17 14
6 12 32 32 43 91 97 98 95 70 52 65 54 44 50 51 47 36 41 57 53 59 61 69 83 83 82 95 91 79 78 89 73 58 52 36 20 11 14 9 6 9 18
6 9 21 58 50 78 89 96 97 85 88 79 70 47 56 57 50 51 54 57 45 47 43 71 89 85 93 97 92 90 77 84 86 76 65 47 37 23 13 13 9 8 11
6 9 15 68 69 81 98 96 95 93 89 68 75 40 64 64 59 64 67 56 39 43 50 62 81 95 100 83 93 82 88 94 85 83 77 65 58 56 33 15 14 9 33
6 10 13 35 55 58 83 95 96 96 96 93 90 88 98 75 67 58 58 53 59 73 67 85 96 94 97 91 100 85 87 100 100 92 95 93 87 76 64 18 17 11 12
37 12 12 16 56 74 70 86 97 98 94 94 97 91 99 96 93 96 79 73 86 76 70 65 79 87 86 88 95 97 92 94 98 98 96 85 86 87 81 35 19 16 10
34 12 70 38 96 98 98 94 97 97 96 99 96 97 96 100 100 94 96 69 67 60 35 49 72 99 95 99 89 97 98 94 99 100 95 89 88 85 72 76 28 22 11
51 18 83 72 100 98 96 90 95 94 96 95 98 96 98 97 95 96 96 70 57 54 42 35 46 51 72 83 86 82 97 97 97 99 94 89 83 84 81 76 72 31 20
50 92 94 100 95 70 73 92 94 98 98 97 98 97 97 98 95 99 74 64 46 29 18 18 17 32 52 54 64 85 80 90 97 97 95 91 96 86 87 82 77 64 31
82 39 63 75 75 66 92 97 100 97 98 98 96 96 92 80 63 47 38 26 28 24 22 19 16 12 16 15 58 65 61 75 91 95 97 94 97 78 82 81 83 73 64
99 86 57 42 44 48 64 88 92 86 92 89 67 78 63 69 62 53 42 24 27 40 33 29 22 20 19 21 52 55 64 74 95 90 90 87 94 82 70 78 90 93 88
83 67 57 62 89 77 91 90 75 69 67 57 70 55 42 50 45 39 42 56 61 58 63 61 44 45 40 40 85 100 99 74 81 93 97 93 76 70 72 72 81 87 90
100 100 100 100 98 91 88 81 80 81 82 75 76 86 89 82 72 78 74 86 78 78 81 76 66 80 80 82 72 86 98 83 76 98 100 83 99 84 100 59 72 76 81
53 52 65 70 70 71 60 48 40 32 31 30 33 34 36 35 35 40 51 48 49 51 56 63 65 66 67 80 82 69 88 93 96 97 100 91 66 56 51 70 90 85 89
6 6 8 11 12 9 10 10 7 6 8 12 12 14 17 17 14 12 10 13 18 21 24 32 47 41 40 47 69 75 96 97 90 100 98 100 95 85 53 49 57 92 89

GFSMA_500_rhum_144.txt.gz
RH
47 67 62 70 67 47 32 31 31 31 27 22 27 39 35 32 40 44 44 32 32 22 23 34 27 34 28 30 26 17 13 16 17 26 36 84 97 97 96 78 70 60 41
43 55 80 75 69 75 61 35 31 30 28 24 26 28 37 32 37 37 44 29 26 26 22 28 39 33 38 33 32 22 19 18 18 18 14 28 74 82 88 91 91 79 80
21 36 54 70 93 74 92 47 33 28 27 26 25 28 30 33 32 34 34 31 30 24 20 20 26 25 30 33 25 21 14 13 12 19 27 20 16 14 24 58 88 92 83
8 16 33 52 68 95 85 82 45 31 27 27 24 28 27 30 31 30 29 29 32 35 31 24 22 21 20 24 36 26 21 15 11 14 18 24 27 25 19 33 68 82 94
8 8 14 28 49 78 96 98 73 40 28 27 26 28 27 27 29 30 31 31 34 39 41 39 34 27 22 24 28 34 32 29 18 16 13 13 17 20 18 23 19 15 55
9 10 10 12 27 54 75 91 89 90 35 26 27 28 27 23 23 27 33 36 34 38 44 43 42 46 44 33 24 25 34 41 30 23 27 14 12 15 22 25 30 25 15
6 7 10 12 13 26 61 79 90 94 79 32 28 27 28 24 22 25 27 36 37 37 44 48 48 53 52 49 38 26 26 36 50 38 39 41 25 20 23 16 27 36 32
3 4 5 9 11 14 22 50 80 98 100 54 33 33 34 26 25 26 26 28 34 40 45 54 57 60 61 59 53 44 32 31 43 53 61 48 42 43 23 15 15 20 25
7 5 4 4 8 10 13 27 64 99 98 88 38 36 37 30 31 31 27 30 31 39 45 54 64 62 64 66 61 58 55 50 42 37 49 48 45 45 38 23 21 15 16
14 12 10 4 3 7 10 14 28 72 96 95 95 75 48 41 37 39 37 36 33 36 47 55 61 56 56 60 57 68 68 65 70 67 53 54 43 38 45 44 26 19 11
16 16 12 12 7 4 6 8 14 21 27 93 97 58 53 63 39 39 41 41 35 38 45 55 56 47 46 51 50 59 62 61 72 79 76 71 64 56 60 48 42 21 19
20 18 21 17 16 8 4 5 8 13 24 52 94 94 78 71 58 40 45 48 46 42 47 54 44 48 42 45 45 52 54 63 77 81 90 69 76 60 71 81 64 36 35
34 40 42 31 27 20 13 7 5 9 14 28 94 97 95 90 75 50 56 58 53 42 44 54 47 44 43 50 53 51 56 62 79 84 100 100 90 83 89 77 62 51 50
54 56 46 56 36 26 21 16 9 6 10 19 72 94 97 95 96 92 54 67 62 46 39 43 48 50 45 57 60 51 48 52 82 83 86 87 94 99 99 94 90 82 71
27 54 93 95 65 32 28 23 18 6 7 19 96 97 97 96 96 97 96 93 88 64 48 62 56 58 52 58 59 63 58 49 72 87 95 93 94 87 86 92 96 96 84
48 46 99 98 99 45 37 40 22 10 6 14 89 97 97 97 96 96 97 96 97 92 86 86 87 96 74 63 76 64 66 76 82 95 96 86 84 89 79 67 83 88 83
61 65 56 95 98 83 72 71 34 13 6 9 15 76 94 97 97 97 97 96 97 96 96 99 97 96 95 75 70 71 76 84 89 86 95 94 84 91 78 74 77 71 85
92 60 64 47 51 51 51 49 27 32 16 8 88 78 66 93 97 100 97 98 96 97 97 98 96 98 96 96 82 84 78 71 84 90 74 58 90 94 88 80 83 87 90
100 100 86 71 38 38 44 53 64 40 14 11 99 100 91 96 93 96 95 96 98 98 98 98 96 97 96 95 97 96 96 84 88 68 37 41 60 56 66 62 65 79 80
100 100 100 99 100 89 82 81 55 100 100 45 83 98 100 100 97 99 98 98 97 97 98 98 96 96 98 98 96 96 98 83 72 58 40 27 25 22 20 28 41 49 80
100 100 100 99 99 99 98 80 61 100 100 100 79 85 100 96 97 98 99 99 98 99 98 98 98 97 98 98 96 93 91 59 41 43 37 27 22 20 19 19 20 26 77
100 99 97 99 97 100 100 100 58 39 30 33 33 51 94 94 96 98 99 98 100 97 98 98 90 92 96 98 98 83 67 46 36 31 25 25 20 20 18 17 16 16 18
100 100 94 100 93 92 97 98 100 100 100 91 99 84 87 84 92 92 89 94 96 96 97 98 88 83 72 74 75 55 49 37 28 22 16 15 20 14 16 16 24 18 14
97 93 83 95 98 96 76 69 63 69 78 75 72 71 70 64 62 83 85 90 95 86 83 95 92 83 59 56 46 40 32 29 29 28 29 21 37 26 31 31 23 18 32
43 23 34 11 9 22 28 14 6 5 6 7 8 9 7 6 8 21 34 32 33 41 42 47 47 54 57 58 52 50 45 42 43 44 41 25 32 32 47 57 53 47 32
10 9 9 15 14 10 8 7 7 7 6 5 6 5 5 4 4 3 3 3 3 3 4 6 12 18 20 24 30 35 42 41 42 39 35 31 28 26 27 35 43 48 58

GFSMA_500_rhum_147.txt.gz
RH
10 16 28 39 48 51 62 67 56 45 32 29 30 26 26 35 36 32 37 39 34 27 34 24 34 28 33 32 33 29 22 14 19 41 38 46 99 98 97 96 82 59 63
5 6 8 12 31 50 69 85 83 59 42 30 29 29 25 26 37 34 35 41 41 30 29 39 40 40 35 36 38 32 25 22 20 18 23 18 57 86 88 90 100 93 74
4 4 4 5 8 16 37 62 87 88 58 51 29 28 28 26 27 35 32 37 38 32 30 25 22 45 49 43 42 37 25 16 15 14 20 25 21 18 16 20 29 47 85
4 5 4 4 5 6 8 28 57 89 91 76 38 28 28 27 27 29 31 32 34 31 31 28 23 25 31 36 31 38 35 29 15 12 14 19 22 26 25 21 23 59 68
5 3 3 4 6 7 7 8 23 58 67 82 48 34 30 29 26 28 30 30 30 30 31 36 36 31 28 24 28 30 35 37 32 23 16 18 15 15 20 19 24 26 21
7 4 3 3 6 7 8 9 9 18 64 88 86 71 33 30 28 24 27 30 29 31 32 37 42 40 38 39 34 26 28 33 43 44 30 28 25 13 14 20 25 27 28
5 4 4 3 4 6 7 9 9 11 66 68 78 92 60 32 29 25 25 27 28 29 34 36 42 45 43 42 47 43 38 29 31 36 51 50 45 40 27 22 32 26 33
4 4 4 3 4 4 5 5 7 9 11 78 96 85 89 63 31 26 24 26 25 26 30 34 37 49 50 53 52 54 51 40 37 35 44 54 65 62 43 39 30 18 18
4 4 3 3 3 3 4 4 4 6 10 15 34 95 96 91 45 26 25 27 28 28 27 31 36 44 53 59 63 60 61 58 51 47 41 36 56 61 56 45 41 26 24
7 8 9 8 10 9 3 3 4 4 5 9 14 30 89 93 95 51 36 36 33 30 28 28 32 40 51 60 66 62 58 59 65 68 62 56 52 50 58 40 40 44 44
14 14 13 10 9 9 11 10 5 4 4 7 9 23 97 96 97 81 46 48 36 34 30 31 31 37 43 55 62 57 49 53 51 64 60 68 68 66 64 56 41 53 47
26 26 22 18 13 14 13 14 11 8 5 9 6 9 16 82 97 97 53 66 47 39 35 33 32 39 41 45 54 58 42 37 44 47 57 72 81 86 65 70 73 70 74
30 38 33 33 28 28 24 17 17 13 12 15 6 7 10 21 98 88 96 93 69 48 46 45 42 43 42 38 42 54 50 39 39 42 57 78 84 93 89 71 75 75 79
29 28 26 21 28 37 40 34 21 17 13 17 13 7 9 15 28 67 98 97 88 58 41 49 53 47 45 35 40 49 44 48 53 55 53 65 78 88 88 89 87 87 89
19 26 32 28 33 33 52 47 35 27 18 18 24 24 34 34 39 79 93 97 97 93 81 54 48 45 41 35 39 48 49 44 49 48 51 64 64 80 84 85 93 92 92
31 52 43 41 56 68 48 61 58 42 28 23 19 19 52 35 21 54 85 97 96 96 95 91 63 44 44 43 44 57 52 49 52 63 50 60 59 71 75 77 89 95 85
43 50 40 52 94 94 94 84 87 75 46 32 45 26 18 8 7 20 57 95 98 97 97 98 96 92 92 72 64 72 67 67 70 65 68 74 88 94 89 75 79 92 93
39 47 59 51 83 97 88 99 100 88 48 34 38 36 51 7 6 85 98 98 97 97 98 98 97 95 94 94 91 95 94 95 96 75 71 75 94 86 88 60 53 66 86
44 47 86 90 84 100 86 100 90 67 53 52 46 44 56 30 10 22 60 77 94 91 97 96 98 98 97 96 96 96 96 97 97 96 80 82 92 91 85 70 40 66 80
94 88 82 94 98 91 81 68 82 54 55 47 98 53 69 55 22 61 98 98 98 95 98 96 98 98 98 97 98 96 96 98 96 98 88 74 79 87 87 56 35 32 22
96 100 100 100 100 100 100 100 100 100 98 99 96 99 98 99 100 93 97 98 98 100 97 99 98 98 98 98 98 98 97 98 98 95 98 88 92 94 78 63 54 32 26
92 83 90 99 99 100 100 100 89 99 100 100 86 100 100 100 100 98 97 96 98 97 98 98 98 98 98 98 98 98 98 98 97 96 100 100 100 70 55 51 43 31 26
98 96 93 98 100 100 100 100 100 99 99 99 100 100 95 96 88 96 96 96 98 99 97 96 98 97 97 98 98 98 98 98 98 96 100 99 94 80 60 47 36 27 20
83 64 40 38 63 92 83 95 94 98 98 100 100 98 96 53 48 53 78 94 96 98 94 91 95 98 98 99 98 98 97 99 98 95 98 97 89 73 52 37 29 24 24
35 32 48 32 13 9 28 59 33 36 35 44 20 9 6 5 5 5 4 4 8 10 40 65 46 23 59 70 57 69 96 97 99 96 94 89 90 74 58 51 42 32 29
9 10 9 8 8 9 9 8 8 8 8 10 8 8 6 6 5 5 5 4 4 3 3 3 4 6 7 10 17 34 32 43 46 36 57 66 70 50 46 41 39 37 34

GFSMA_500_rhum_150.txt.gz
RH
8 8 8 8 8 16 22 37 46 57 67 68 50 30 29 29 29 29 34 32 35 34 29 35 27 28 30 25 35 29 29 24 14 26 57 47 56 95 93 99 95 82 68
6 5 6 5 5 5 7 22 22 41 62 78 86 60 30 30 30 26 31 35 34 36 36 37 36 37 31 35 34 34 34 29 20 19 29 37 28 75 90 98 98 98 93
9 8 7 9 8 8 6 6 16 22 20 54 78 94 51 30 32 30 25 32 35 36 41 33 38 35 38 40 38 37 32 30 23 19 16 20 22 22 69 97 100 98 98
12 11 10 9 9 8 7 7 6 6 13 13 34 64 95 51 33 34 30 26 31 32 43 34 32 30 38 38 45 43 37 39 28 18 14 13 16 22 23 20 19 22 40
17 14 11 10 9 9 8 6 5 5 10 20 10 29 73 97 69 36 37 29 27 32 32 36 31 31 30 25 34 39 30 31 35 31 25 16 13 15 16 19 21 19 24
20 18 15 13 12 10 9 8 5 5 6 12 18 22 38 78 98 75 41 36 29 27 32 31 31 31 33 34 28 34 31 28 31 39 38 30 24 21 15 11 16 19 23
18 16 15 14 13 12 10 8 5 4 4 7 15 23 67 34 63 97 57 43 34 28 29 32 30 33 35 39 38 36 35 38 34 36 41 47 46 40 36 29 17 22 28
14 15 14 13 12 10 8 5 4 4 4 5 6 14 24 73 86 88 96 67 46 33 30 41 42 33 34 42 42 41 44 45 48 45 37 37 47 51 52 53 45 43 33
17 11 8 6 5 4 5 5 5 5 4 3 4 5 17 24 24 96 96 96 68 48 41 41 47 43 33 37 39 44 48 53 52 53 53 49 45 48 49 59 59 49 45
6 4 2 2 2 5 5 6 4 3 3 3 3 3 4 9 17 32 92 96 89 57 48 47 50 44 33 29 33 38 45 58 56 54 53 54 49 48 44 42 47 52 45
6 11 9 9 11 10 10 9 9 8 7 5 8 8 5 5 13 14 17 95 97 85 59 57 50 45 37 26 30 36 43 53 59 55 46 46 58 62 68 76 64 59 51
18 22 23 19 22 23 26 22 17 11 9 8 7 17 13 12 9 9 13 33 97 96 74 59 54 50 37 29 29 32 35 42 52 46 43 46 54 57 64 79 81 67 62
19 19 19 23 16 20 27 35 33 19 13 11 10 16 20 30 22 31 34 87 97 97 91 70 59 53 40 32 29 29 31 33 37 40 30 41 47 47 63 77 89 84 66
27 24 24 18 13 18 26 28 29 33 20 18 16 16 18 34 35 24 8 12 22 92 97 97 71 49 37 33 33 32 28 32 37 30 27 28 34 47 56 75 90 98 91
33 21 25 25 29 29 30 30 27 27 37 37 32 21 21 33 42 38 33 27 19 32 80 97 98 63 46 41 40 36 43 36 30 44 35 37 47 58 64 71 86 98 92
27 18 24 26 36 37 32 36 38 21 26 30 44 47 29 35 40 44 42 39 22 36 77 84 96 93 67 58 44 42 36 30 37 51 52 53 53 47 68 87 88 93 97
47 36 36 51 59 41 39 60 82 70 61 40 49 59 32 54 47 46 50 82 64 45 44 97 99 96 95 95 87 70 57 46 41 84 63 63 60 47 66 74 82 87 80
42 44 32 44 55 39 67 98 100 100 100 100 90 59 32 28 31 40 62 78 81 98 94 77 98 99 98 96 96 97 89 64 59 50 53 64 86 55 56 62 72 68 77
51 34 33 28 56 55 81 95 96 97 98 99 88 75 51 35 24 22 23 62 91 65 50 40 47 91 96 100 96 96 96 93 67 69 77 86 76 74 63 57 66 70 63
74 74 66 39 59 68 91 93 100 99 100 82 72 66 44 33 33 35 34 29 66 39 40 75 92 98 93 96 96 98 97 96 97 98 98 95 96 96 94 88 80 70 75
97 94 85 80 74 77 84 88 98 100 95 100 98 84 82 66 63 88 67 40 23 14 29 84 97 98 98 96 97 97 98 98 97 97 100 96 96 98 98 97 92 83 77
100 97 96 98 99 99 96 100 99 100 100 95 87 100 100 100 99 100 98 100 100 100 89 98 98 98 98 98 98 98 98 98 98 100 100 97 94 98 100 97 99 90 79
41 49 70 84 94 99 100 100 100 100 100 100 100 100 100 99 99 100 98 100 100 100 85 98 98 99 97 97 98 98 98 98 98 98 97 98 97 99 98 92 96 97 93
86 86 35 13 30 65 76 98 99 99 99 100 100 99 99 100 99 98 97 96 100 100 97 98 100 97 97 98 98 98 98 98 98 100 100 98 98 98 98 98 98 97 98
23 11 12 18 8 10 13 30 68 69 53 74 73 42 71 85 41 18 8 19 39 64 66 84 47 62 77 94 98 98 98 98 96 97 98 98 98 99 98 98 98 98 96
10 10 10 10 9 8 10 10 10 9 8 8 8 8 9 27 22 7 6 6 5 5 4 5 6 4 4 6 10 22 36 67 93 90 93 97 99 97 99 97 97 96 97

GFSMA_500_rhum_153.txt.gz
RH
16 15 13 9 7 5 5 7 22 58 58 45 69 93 86 59 36 31 29 29 30 33 33 34 32 29 25 30 29 28 31 27 25 18 16 41 62 65 90 90 95 98 94
11 11 13 16 15 12 9 6 6 7 30 65 34 45 67 92 88 40 34 28 29 32 35 37 35 33 34 33 28 28 29 33 31 24 21 17 23 28 82 99 91 95 97
9 10 11 12 14 16 15 14 11 8 8 20 50 36 30 53 79 95 42 34 30 28 34 36 40 36 36 39 40 38 36 34 35 29 22 18 14 16 16 62 86 91 93
10 10 9 9 10 12 15 16 16 14 11 10 22 44 38 20 39 76 96 52 33 31 29 34 38 45 41 44 40 41 44 44 37 33 24 18 14 14 20 18 29 54 66
11 12 10 10 9 9 9 13 16 16 14 11 9 21 40 52 23 28 69 98 58 35 32 30 33 41 43 36 35 38 38 45 41 39 33 22 15 13 15 18 18 18 19
13 12 10 8 9 11 12 13 11 15 16 14 11 8 15 34 53 33 18 57 98 60 35 32 30 33 39 36 32 39 29 36 37 30 38 33 28 19 14 16 15 15 16
14 12 9 8 8 12 14 15 13 12 13 15 12 10 7 16 37 46 45 39 44 95 63 35 35 33 35 34 31 32 34 36 34 33 30 34 41 36 27 25 19 12 13
15 13 13 13 15 13 13 13 13 14 12 12 12 9 7 6 13 28 50 56 70 54 84 62 35 38 40 42 33 32 36 40 41 41 36 36 40 39 42 46 40 38 39
14 14 17 16 15 13 14 14 12 10 12 10 10 9 6 5 5 19 27 28 66 92 69 97 52 36 43 55 39 38 36 40 40 41 46 49 50 45 38 41 49 56 64
17 18 18 14 11 8 5 5 5 3 3 3 3 4 5 5 6 8 14 54 94 31 26 47 94 64 37 59 62 54 37 39 42 40 43 51 52 57 56 46 49 43 46
21 13 5 4 4 3 3 3 3 3 4 4 5 5 5 5 5 4 11 15 26 35 26 18 54 97 69 41 70 70 49 40 39 39 39 45 53 55 56 54 52 58 58
3 5 9 13 13 15 19 22 17 14 13 10 10 11 9 8 10 8 10 21 25 28 22 18 31 76 96 69 60 73 69 51 40 41 38 38 46 50 48 58 64 58 67
11 12 23 26 20 18 17 20 24 15 14 18 22 25 21 15 15 15 21 22 21 33 37 17 14 22 96 93 72 71 60 56 46 46 42 36 35 40 35 33 51 52 53
33 32 24 37 31 24 23 24 22 20 17 17 24 35 35 31 24 16 25 35 24 26 58 37 16 68 91 95 82 67 68 57 51 40 60 50 32 28 29 28 33 41 54
37 44 58 56 33 22 24 26 27 24 23 19 21 26 44 45 33 19 26 45 58 31 14 16 82 86 98 97 94 92 81 77 56 54 56 63 70 64 43 30 38 45 55
57 52 50 53 33 33 36 33 27 45 42 35 31 30 30 30 46 41 43 49 70 78 100 96 83 46 90 94 98 97 96 94 76 59 57 61 66 73 76 60 45 48 62
62 62 55 45 32 32 28 43 35 59 59 52 51 54 29 27 42 57 27 28 46 54 70 65 62 61 44 65 84 97 96 95 83 55 41 52 61 75 78 75 53 51 54
52 53 49 49 42 49 50 60 65 72 69 56 69 75 48 40 46 74 50 25 28 40 72 74 96 63 56 77 95 98 95 95 96 77 60 49 55 62 68 64 48 48 47
63 61 55 46 48 51 75 82 81 62 77 87 75 100 96 73 78 85 69 52 91 60 84 85 98 82 96 66 57 95 97 96 99 98 96 93 69 48 59 61 63 64 60
82 86 90 79 58 46 77 89 90 99 96 98 95 100 100 96 82 73 48 41 38 40 38 81 98 98 98 97 96 96 89 92 94 86 97 97 95 87 72 58 67 69 78
91 93 100 100 93 85 94 88 94 74 87 99 98 100 99 100 82 74 35 31 29 26 22 24 95 98 100 96 96 83 77 70 98 98 98 96 97 97 89 64 65 89 75
86 33 37 56 81 100 100 100 100 100 100 100 100 97 88 100 90 65 90 98 56 45 41 38 41 69 92 88 62 71 96 98 98 99 93 100 96 95 97 100 98 96 96
93 97 82 22 14 27 47 94 100 100 100 100 100 100 100 100 100 100 100 100 100 93 88 100 96 97 73 95 88 100 96 98 99 100 98 98 96 98 98 96 98 99 94
27 47 34 34 16 11 11 14 43 100 99 100 100 100 100 100 100 100 100 100 99 100 100 100 98 63 89 100 100 97 98 99 98 98 97 98 98 98 99 98 99 98 97
10 10 17 11 12 12 11 10 11 11 44 51 89 100 99 100 100 95 94 94 92 92 98 98 99 100 99 100 98 99 100 99 99 98 99 98 98 98 98 99 98 99 100
16 14 13 15 16 15 14 12 12 12 11 10 9 9 11 15 12 84 90 27 33 66 46 15 47 36 70 92 97 99 100 98 98 100 97 98 98 99 98 99 98 98 99

GFSMA_500_rhum_156.txt.gz
RH
10 11 12 12 12 12 12 13 15 14 10 8 15 59 79 54 75 96 78 50 35 30 30 32 31 34 33 31 28 27 31 30 33 24 22 19 28 49 42 71 92 99 91
7 7 9 9 9 10 10 12 15 14 15 15 10 9 16 79 61 54 82 80 69 38 29 30 35 34 35 32 31 30 31 31 31 31 29 26 28 56 36 77 98 89 92
8 8 8 8 8 9 9 8 8 13 15 15 16 14 14 18 66 85 35 39 60 90 40 30 30 36 37 36 33 34 36 34 38 36 35 31 29 29 46 44 86 92 92
8 10 9 8 9 9 8 7 9 8 8 12 14 16 15 16 33 69 91 28 24 68 85 40 31 31 40 42 43 38 38 40 43 40 38 33 26 22 19 25 30 57 91
8 10 10 9 10 10 12 12 11 10 8 8 13 17 17 16 13 38 63 89 38 21 64 86 63 32 29 40 44 45 43 37 41 46 50 42 35 23 17 18 22 21 29
10 10 10 11 11 12 14 14 12 10 9 8 8 12 16 18 16 14 39 58 76 54 14 32 86 66 32 30 41 45 49 39 36 35 40 41 36 36 27 14 16 19 20
12 14 15 14 14 14 14 13 11 10 8 10 11 14 15 16 16 16 11 34 62 75 61 26 21 76 76 32 31 35 42 46 37 33 33 38 33 34 34 32 23 17 18
20 19 17 16 15 15 13 10 8 8 8 12 10 12 13 15 15 16 14 10 28 44 62 53 33 40 90 73 33 31 35 41 32 33 32 37 37 34 34 41 47 40 36
21 19 18 18 17 14 10 8 8 9 9 12 13 13 13 12 15 14 13 11 9 10 62 99 55 58 67 90 64 35 36 38 41 41 34 36 42 44 40 44 39 42 52
20 20 21 20 17 14 11 13 14 14 12 11 10 11 11 10 10 10 10 10 11 9 15 68 97 90 100 95 97 66 36 41 39 36 44 36 40 46 48 50 53 49 47
27 31 31 27 19 17 12 6 5 4 3 3 3 3 3 3 3 4 4 5 15 17 19 27 33 89 96 90 93 92 73 47 51 38 40 41 39 39 46 47 52 54 49
32 28 21 15 7 3 6 9 7 7 10 10 14 11 5 4 3 4 4 3 4 9 10 14 16 23 76 98 58 44 80 78 62 58 46 41 38 38 44 50 50 49 54
22 8 6 6 15 18 27 32 30 20 16 15 20 24 21 17 16 14 12 8 6 5 6 12 14 34 54 98 74 39 50 95 60 61 73 45 40 40 44 43 50 47 41
10 14 16 19 29 33 41 36 30 29 23 21 24 25 22 22 24 22 21 22 17 10 13 34 27 25 45 46 52 46 55 68 96 78 81 86 59 41 43 41 42 52 39
23 23 26 31 38 41 43 46 31 22 21 21 18 18 18 17 18 20 29 30 28 19 15 29 39 33 42 44 37 41 34 64 93 97 95 93 93 82 52 42 39 42 48
40 44 36 31 47 52 47 40 33 27 20 20 26 31 25 27 32 24 24 31 38 38 27 27 35 29 35 43 50 43 42 75 99 97 95 94 96 89 76 87 84 61 53
49 43 41 43 53 50 49 49 38 34 37 45 43 45 44 44 41 40 37 44 45 45 27 83 61 61 47 47 71 77 79 89 96 97 97 97 96 93 87 80 92 87 82
55 47 50 56 50 51 47 47 38 44 66 72 75 56 56 75 74 53 39 38 38 52 44 68 93 100 99 87 76 85 100 98 99 96 98 97 97 96 91 86 83 81 76
78 63 61 64 64 50 45 40 53 60 99 91 56 59 48 61 62 63 77 50 35 59 57 43 46 54 86 94 98 98 97 89 70 78 94 97 95 96 96 93 80 68 68
66 91 72 70 92 98 83 69 55 63 81 82 66 68 78 88 97 85 100 53 63 75 58 31 24 31 42 84 99 100 74 65 65 90 98 96 97 97 98 96 95 78 57
25 39 99 64 46 67 90 100 100 90 85 70 74 96 99 100 100 100 100 100 100 83 64 57 98 68 96 99 98 99 99 97 98 97 98 97 93 97 85 92 98 97 96
66 22 40 80 85 25 18 34 84 100 100 100 100 95 100 100 100 100 100 100 100 100 100 100 99 80 100 71 100 97 100 99 98 98 99 96 98 98 97 98 97 98 100
47 42 14 26 41 40 18 12 13 20 71 100 100 100 100 100 100 100 90 100 96 85 93 99 82 78 62 41 87 91 96 98 99 98 98 98 96 93 98 97 97 97 91
23 18 17 14 22 26 20 16 16 16 15 30 88 97 99 100 100 100 100 100 100 97 76 81 91 57 51 62 64 99 97 99 99 99 96 94 93 99 97 98 98 98 98
98 54 32 23 21 25 24 21 20 20 19 16 18 33 76 93 98 100 100 100 100 100 100 100 100 100 97 100 100 100 100 99 99 99 98 95 100 97 94 98 97 95 99
100 100 95 74 68 32 32 33 29 25 24 23 20 17 17 18 21 44 76 96 100 96 96 99 98 99 100 100 100 99 100 99 100 98 100 100 100 100 100 98 99 98 99

GFSMA_500_rhum_162.txt.gz
RH
9 9 8 8 8 8 8 8 9 8 9 9 9 10 10 10 10 13 13 15 20 28 60 64 70 57 44 45 30 23 30 30 31 28 28 31 27 27 24 23 38 96 97
10 9 9 9 9 9 9 9 9 9 9 9 8 8 9 9 8 8 12 12 14 23 40 48 60 79 88 61 49 30 33 36 36 31 31 31 29 28 29 24 35 44 100
10 8 7 6 7 8 7 8 9 9 8 8 9 9 9 8 8 8 9 10 10 13 21 32 64 66 54 87 77 45 36 34 35 34 36 37 32 29 31 30 26 26 63
7 6 5 5 5 6 6 6 6 7 7 7 7 9 9 9 8 9 10 9 8 8 12 19 42 79 76 44 60 64 40 35 34 35 38 42 40 39 34 34 30 21 39
5 4 5 5 6 7 8 8 8 9 9 9 10 11 10 10 10 10 11 11 9 8 7 10 16 56 91 94 64 67 66 31 34 35 41 42 46 45 40 37 35 26 20
30 29 29 32 31 32 34 30 24 22 22 22 21 22 20 14 13 12 12 12 11 9 8 7 8 21 60 92 95 76 73 50 32 34 41 47 48 50 47 46 42 35 25
28 26 26 26 27 28 28 30 33 31 25 20 19 21 21 19 17 14 13 13 12 10 9 8 6 8 19 62 99 95 74 73 58 34 39 46 48 50 46 44 44 45 41
31 30 29 28 27 27 28 28 29 32 34 28 25 22 21 21 20 17 15 14 12 11 9 8 7 5 16 25 65 100 96 76 65 80 34 40 47 55 47 44 41 38 39
26 26 24 23 22 22 22 21 21 20 20 23 24 22 22 22 22 20 18 17 15 12 9 7 6 6 6 16 36 71 95 96 84 76 71 35 44 49 54 46 38 39 36
23 23 22 21 20 20 19 19 19 20 21 23 26 26 25 25 24 21 19 19 16 13 10 8 6 6 6 10 19 41 59 93 97 79 86 65 38 44 48 46 38 40 39
31 28 28 26 24 25 26 27 26 26 28 30 33 30 28 25 25 24 22 16 14 11 10 11 8 6 5 7 12 24 54 95 95 97 93 76 76 49 42 45 38 35 40
54 48 40 33 29 24 22 23 21 21 22 22 20 19 18 16 15 13 12 10 10 10 10 13 13 11 8 8 10 15 22 39 65 90 96 94 87 79 51 43 46 44 39
65 52 46 42 39 36 30 24 21 17 14 11 9 9 8 11 9 7 8 8 7 6 7 8 9 11 12 11 12 16 16 19 20 29 96 96 96 96 88 76 48 47 46
38 41 44 38 33 25 18 18 22 22 18 16 22 23 22 28 24 24 16 11 8 11 24 6 5 5 10 12 12 14 14 20 27 26 34 97 97 97 96 95 83 76 49
72 77 64 53 43 36 28 24 28 29 27 30 42 38 34 40 30 25 25 17 10 14 24 27 13 8 4 6 6 7 10 12 26 44 48 70 96 94 96 95 96 95 88
95 90 68 58 53 48 38 37 34 29 30 39 45 41 42 35 28 24 21 20 20 19 22 26 31 22 9 7 7 8 7 13 15 26 40 53 68 82 92 98 95 94 97
100 99 84 62 59 58 51 45 40 48 40 39 42 39 37 37 36 32 29 26 23 25 24 22 28 29 25 15 12 12 9 9 14 24 38 35 44 97 97 97 96 97 94
100 100 97 85 91 69 55 64 54 45 51 66 61 51 46 43 39 36 56 57 53 47 38 34 33 35 36 31 23 23 19 20 22 28 51 49 98 98 97 96 97 94 96
100 100 100 91 91 82 36 59 69 42 51 55 60 66 47 44 59 69 52 48 51 50 49 48 53 37 33 36 44 33 29 23 15 18 37 56 71 94 93 98 96 96 97
98 100 100 98 82 67 53 35 55 65 20 46 69 59 63 77 78 80 73 73 74 60 46 40 43 62 51 43 50 47 38 34 26 16 23 35 50 77 91 78 74 79 77
97 100 100 99 74 57 47 52 30 50 55 19 37 84 83 64 63 81 90 94 74 59 41 32 35 73 85 59 54 62 54 43 90 92 43 40 48 49 45 58 64 73 75
100 94 100 100 96 48 28 30 36 27 39 30 20 25 72 95 96 88 97 91 92 69 69 55 62 74 93 93 92 80 66 48 93 86 100 97 81 82 64 46 52 83 80
84 98 91 100 100 76 59 42 58 33 32 35 24 18 23 47 69 91 100 100 100 100 100 100 100 100 100 100 98 100 100 92 100 100 100 88 87 100 100 100 93 68 96
77 77 86 90 98 100 99 86 86 88 46 46 53 30 26 26 40 47 68 95 100 100 100 100 100 100 100 100 100 100 100 100 100 81 68 68 84 96 98 97 100 97 98
74 76 80 76 80 93 100 100 100 99 97 63 44 58 70 52 30 31 37 56 63 85 96 98 100 100 100 100 100 100 100 100 91 100 100 100 99 94 99 99 99 100 98
77 77 74 75 76 85 94 95 99 100 97 94 96 84 50 54 60 42 33 32 33 45 60 93 95 99 100 100 100 100 100 100 100 100 100 100 100 99 97 85 89 98 99

GFSMA_500_rhum_168.txt.gz
RH
29 25 19 14 10 9 8 8 8 8 8 8 8 8 7 8 9 9 11 11 11 11 10 10 13 18 29 46 85 90 98 95 55 39 20 17 19 27 27 31 28 28 24
26 24 20 16 15 12 10 10 10 10 10 10 10 9 10 9 9 9 9 10 10 10 10 10 8 10 16 19 51 83 95 97 94 63 39 28 28 31 27 30 30 29 27
13 18 20 21 19 17 14 13 12 11 11 10 10 9 8 8 9 9 9 9 8 9 10 9 9 9 10 13 22 45 81 98 100 94 56 41 34 36 27 29 30 29 30
25 27 24 18 16 10 9 11 12 12 11 10 9 8 7 7 7 7 8 8 7 8 8 8 9 9 9 11 11 22 35 79 97 88 90 62 37 35 33 27 31 31 30
36 36 34 30 27 26 28 30 27 15 6 6 6 5 5 5 5 6 6 6 6 6 7 7 7 9 10 10 11 10 18 35 69 93 84 79 69 36 36 32 29 32 33
48 45 42 41 38 34 32 32 32 31 32 30 22 16 16 9 7 6 7 17 18 10 10 11 10 9 9 10 11 11 10 22 38 59 98 96 85 59 37 35 30 32 37
41 36 33 31 29 28 29 31 32 32 32 28 29 31 31 31 29 27 27 28 31 29 25 21 21 18 13 10 10 12 12 11 31 48 63 98 98 94 59 37 35 34 35
23 23 21 20 20 20 20 22 23 25 28 29 29 29 30 32 31 28 26 26 28 28 27 21 20 22 21 16 12 12 13 12 12 29 49 64 64 88 98 52 34 37 38
31 30 28 22 18 14 14 14 17 20 20 23 26 27 28 28 28 28 27 27 27 30 34 34 25 20 20 20 16 13 13 14 13 14 33 56 96 69 84 94 38 33 39
26 23 19 17 15 15 14 16 13 10 11 9 12 18 23 24 24 24 24 23 23 24 24 29 31 29 25 22 20 17 14 14 14 14 14 28 48 88 97 95 90 58 36
30 34 40 43 40 33 32 39 44 39 32 25 18 14 9 13 16 19 18 20 21 21 21 21 20 23 25 24 22 20 17 14 14 15 14 16 27 65 98 96 97 96 64
52 56 63 67 62 52 67 57 48 41 40 35 31 26 25 17 10 10 11 16 23 17 16 17 19 20 22 23 23 22 19 16 16 15 15 16 22 40 82 69 95 97 96
57 67 70 64 50 38 77 65 60 62 53 41 32 25 22 21 20 15 12 14 22 23 21 16 17 18 20 21 23 23 22 22 19 17 17 16 18 30 32 29 43 97 97
49 54 64 58 29 71 81 85 89 68 57 47 39 34 29 26 19 18 17 16 16 16 15 14 17 20 24 26 26 25 24 24 22 21 20 18 24 25 25 18 21 42 41
51 66 66 24 64 91 92 91 96 89 72 59 49 41 35 34 35 29 28 23 22 28 28 34 24 14 13 13 15 17 21 22 22 22 19 17 15 25 24 22 15 17 23
74 65 31 48 77 93 98 96 93 88 79 67 55 49 46 40 50 48 44 46 48 48 47 50 49 41 32 25 20 13 12 12 13 15 15 16 15 17 18 17 16 16 18
22 16 20 34 73 97 99 94 98 97 86 79 54 55 52 48 48 61 68 60 56 53 52 54 50 44 41 36 32 28 24 17 13 11 11 12 14 20 32 20 15 15 15
4 4 6 18 33 74 77 93 96 97 93 66 56 54 50 50 45 43 66 77 71 54 51 51 52 45 38 34 37 29 22 16 18 25 19 14 15 14 12 12 94 22 14
4 5 6 7 19 36 83 74 91 86 86 48 37 48 36 36 31 38 45 65 77 76 65 58 63 62 66 55 42 36 33 22 26 29 30 33 31 23 16 9 15 10 12
5 6 8 14 32 53 81 77 74 92 88 60 37 35 33 34 39 26 48 62 62 78 100 94 94 89 76 70 64 65 53 41 36 33 34 34 37 37 22 13 57 78 81
8 7 8 11 28 48 59 65 77 82 90 83 60 50 75 60 38 43 22 56 78 72 79 100 100 100 100 92 82 67 65 69 65 54 48 50 44 45 33 15 21 32 96
9 9 10 20 41 50 62 63 58 48 66 81 82 87 89 90 66 50 52 30 25 58 81 88 98 100 100 100 100 80 61 52 56 66 60 63 56 57 50 26 15 23 75
9 11 13 19 28 38 45 52 59 60 62 65 68 77 82 83 86 77 64 54 59 63 42 63 94 99 100 100 100 100 82 69 57 46 81 89 71 64 65 52 36 27 20
9 12 16 24 30 40 46 52 59 59 59 58 57 61 63 62 62 68 72 85 78 57 59 61 53 76 94 100 100 100 100 100 100 92 89 76 69 73 84 79 57 39 39
8 10 16 23 30 42 50 55 59 58 56 56 56 56 55 54 53 52 52 50 51 58 67 62 58 58 63 82 94 100 100 100 100 95 80 79 82 100 100 100 100 87 90
13 13 13 17 25 34 40 48 53 54 57 61 62 60 53 48 42 39 36 37 37 37 38 41 47 62 66 66 76 85 93 100 100 100 100 100 99 99 100 100 100 100 100

GFSMA_500_rhum_174.txt.gz
RH
31 27 25 24 24 28 30 32 31 32 30 19 11 10 10 10 9 10 12 12 12 11 11 11 12 12 12 17 20 23 21 22 36 68 73 74 92 68 32 22 21 16 27
16 17 17 16 16 15 13 11 12 21 29 28 22 14 10 10 10 10 10 12 13 12 11 10 10 10 10 11 12 16 17 24 25 23 47 71 80 96 51 30 21 15 26
26 25 25 21 22 20 19 18 19 20 18 14 19 24 20 12 9 9 9 9 8 8 8 10 10 8 8 10 10 9 10 10 16 24 17 31 86 88 91 45 26 15 27
47 47 47 46 45 45 44 43 42 40 38 32 26 24 19 18 17 12 9 10 10 10 9 9 8 9 8 8 9 9 9 9 9 11 14 12 27 67 89 81 43 27 30
58 58 52 46 42 42 44 45 45 43 39 34 33 33 36 37 26 18 15 13 11 11 12 10 9 9 9 10 9 9 8 9 9 10 15 24 21 41 73 95 70 47 35
66 57 51 56 59 57 52 46 43 37 32 30 28 27 24 19 23 33 32 20 15 13 12 12 12 10 9 8 8 9 8 8 8 8 10 26 33 30 33 66 86 84 70
59 57 60 63 64 62 57 50 41 33 24 17 17 18 17 16 16 15 16 26 32 28 21 11 10 10 9 8 7 6 7 7 6 7 7 9 15 46 54 52 64 87 98
67 76 73 66 53 41 33 29 23 19 15 14 14 10 10 12 13 13 13 13 14 24 30 30 25 15 7 7 6 6 6 6 6 7 8 8 9 16 42 51 65 76 82
82 73 62 47 38 34 26 22 19 13 10 8 8 11 14 13 10 10 11 12 12 13 18 26 30 30 29 17 7 5 5 5 5 10 23 18 15 11 12 38 53 79 82
78 63 44 35 30 27 20 15 12 16 20 22 24 23 18 17 25 23 16 10 10 11 11 15 21 28 30 31 32 25 15 13 12 16 27 30 24 20 14 12 28 52 79
50 43 34 30 24 21 20 20 17 22 30 31 30 12 11 12 35 40 35 32 19 12 11 12 13 17 27 30 30 31 32 31 28 27 29 30 26 24 22 18 13 19 64
46 39 34 32 28 24 20 19 24 34 45 19 14 48 46 44 44 55 51 38 35 28 17 12 14 16 18 24 30 30 31 32 30 28 28 28 26 25 24 23 23 19 19
51 49 41 31 33 31 29 39 47 23 9 14 27 55 66 65 64 63 51 43 35 29 29 25 16 17 18 19 22 26 27 28 29 30 30 30 30 29 26 22 23 21 31
52 51 40 30 39 47 43 17 4 6 12 28 54 69 75 74 73 64 53 46 35 30 31 28 26 23 26 27 23 22 24 25 26 26 29 32 34 34 34 26 24 24 21
42 45 32 36 40 7 4 4 4 5 8 22 36 59 76 83 82 80 66 51 46 42 55 45 35 26 26 29 31 29 27 26 26 25 26 27 28 30 32 32 28 27 25
46 32 36 20 4 5 4 5 5 5 7 9 41 43 57 75 66 71 62 58 47 64 94 86 65 45 39 31 28 28 29 30 30 28 24 23 23 24 24 25 26 26 26
32 41 10 6 7 7 8 7 6 7 8 16 43 72 60 61 69 61 65 54 45 46 92 100 100 87 61 59 50 34 27 25 25 26 28 28 25 24 24 20 20 22 25
44 7 8 9 11 11 12 11 9 9 11 20 43 50 54 53 63 68 61 62 52 37 52 95 100 100 100 87 78 71 54 37 33 26 24 21 21 23 26 25 26 25 26
8 7 10 12 12 14 14 13 12 12 20 31 37 44 47 54 57 62 68 66 68 52 38 46 86 100 100 100 96 84 76 69 58 54 50 42 28 22 22 20 22 23 24
7 9 11 13 16 16 16 15 13 12 15 20 23 28 29 32 35 40 41 58 63 65 61 49 36 72 97 100 100 100 99 80 68 62 54 48 45 40 33 34 32 28 22
9 13 15 16 16 15 14 14 15 16 18 22 28 29 33 35 36 39 49 49 50 51 60 70 64 48 51 77 98 100 100 100 93 77 62 53 47 46 48 47 42 45 43
12 14 15 17 17 17 17 16 18 19 22 24 27 31 35 37 38 36 36 36 40 40 37 41 54 69 62 56 59 79 98 100 100 100 99 80 68 63 57 54 56 50 47
16 26 32 30 25 24 25 25 25 22 20 19 20 21 23 26 28 30 32 32 32 32 32 32 33 34 38 48 56 55 64 79 96 100 100 100 99 87 78 79 80 72 57
27 35 39 37 34 30 28 28 29 31 33 34 33 31 27 25 22 20 19 18 18 18 18 17 15 16 21 26 28 36 48 51 61 76 91 99 100 100 94 88 97 98 84
42 43 42 43 44 44 44 46 49 51 51 52 50 50 50 49 45 43 41 39 38 38 36 33 30 27 25 21 16 20 24 27 33 44 57 73 92 100 100 100 95 100 100
39 38 42 43 44 46 48 48 48 48 51 53 54 56 59 59 59 58 58 58 56 55 54 51 49 48 47 44 40 34 26 17 19 27 30 36 53 74 96 100 100 100 100

GFSMA_500_rhum_180.txt.gz
RH
31 33 30 25 23 23 23 25 27 29 30 31 31 33 34 31 27 20 16 22 30 27 13 11 9 9 12 22 34 56 67 90 88 80 67 65 62 57 72 74 76 79 60
29 30 31 31 32 34 37 39 40 39 40 39 38 38 37 37 35 33 31 24 16 23 28 15 11 10 11 11 13 16 26 38 88 77 77 46 41 49 56 72 74 77 90
44 44 45 46 47 47 46 47 48 50 51 50 48 46 43 41 39 36 35 33 32 23 16 24 21 12 11 13 14 15 14 15 24 32 39 55 50 36 46 55 57 66 78
50 55 54 52 50 50 55 57 58 56 48 44 43 43 45 45 47 43 38 41 37 33 31 22 18 21 13 11 13 17 18 16 14 14 14 18 45 54 45 46 51 59 71
54 52 51 55 59 61 60 57 52 46 45 45 45 46 46 47 47 42 40 41 42 40 37 36 36 27 20 17 11 11 14 16 18 18 17 15 14 24 27 42 47 48 61
62 63 66 66 62 58 57 57 54 49 53 50 52 51 46 45 42 40 37 33 33 37 38 39 37 35 36 30 20 13 10 10 10 15 17 15 14 15 14 20 27 52 54
75 76 74 68 64 66 62 59 53 53 51 53 55 46 40 36 32 28 27 24 21 19 18 23 30 32 26 28 35 29 17 12 11 10 10 13 12 11 12 11 13 17 56
89 79 70 72 73 64 58 54 61 60 50 42 35 32 30 27 25 21 18 16 12 11 10 10 12 15 20 22 21 33 36 21 14 12 12 10 9 9 10 10 10 11 13
78 76 81 78 76 67 63 67 58 46 34 26 27 27 26 23 21 17 13 12 10 10 8 10 8 7 8 11 16 17 22 35 28 17 13 12 12 10 9 9 9 9 10
87 89 98 87 82 75 68 57 48 39 33 34 30 26 21 15 14 18 15 14 14 10 4 4 13 10 6 7 7 11 13 16 28 33 22 14 12 12 12 9 8 8 8
93 92 89 95 89 79 62 52 45 47 40 35 28 18 17 18 13 5 4 4 3 4 4 8 20 18 12 9 12 9 8 10 13 20 34 29 18 13 12 12 10 8 8
83 90 93 90 72 60 53 50 47 34 33 29 24 18 6 4 4 4 4 4 4 5 6 7 11 23 30 27 21 20 14 9 9 12 16 30 34 26 16 11 10 9 8
46 52 59 63 63 58 52 44 38 32 29 22 5 5 6 4 5 4 4 4 5 4 5 8 11 17 19 22 29 30 31 21 11 9 11 13 24 35 33 24 16 9 7
51 48 47 50 56 53 43 39 30 27 10 8 8 9 6 7 6 6 6 6 6 10 13 14 13 13 21 21 21 26 28 28 25 16 13 13 14 23 34 34 32 28 17
43 30 35 52 49 38 34 32 28 8 11 13 13 12 10 10 9 8 7 8 13 17 21 29 36 50 47 41 41 42 37 37 33 30 23 18 15 16 23 32 35 34 33
27 23 24 53 50 46 41 28 9 12 16 17 16 17 16 14 13 12 10 9 11 16 27 32 37 47 53 48 53 78 87 89 74 47 32 28 24 19 19 23 30 35 34
28 26 18 41 44 44 32 10 11 15 18 20 20 21 20 18 18 17 15 14 12 11 11 17 30 46 51 50 46 74 87 96 100 97 54 35 33 31 24 24 25 28 32
42 20 41 52 44 41 12 9 15 20 23 24 25 24 23 22 23 22 22 22 20 17 16 12 13 22 36 43 50 49 59 93 99 100 99 64 38 33 33 32 29 29 29
24 44 62 52 48 20 8 12 19 23 26 27 27 27 28 28 28 29 28 28 28 27 25 21 17 14 16 22 29 42 56 52 88 99 100 100 75 53 38 34 32 33 33
85 78 70 68 31 7 12 20 25 27 28 28 30 31 32 32 33 33 33 33 33 33 33 32 30 27 22 16 14 22 36 56 57 71 97 100 100 95 76 56 37 32 31
97 80 85 50 6 10 20 23 25 30 34 35 36 36 37 36 35 34 35 35 35 35 35 36 37 36 34 31 28 19 15 24 34 55 61 86 96 100 100 93 78 57 41
85 89 82 6 8 15 24 28 32 36 38 39 39 40 39 39 38 37 36 36 37 37 36 37 37 37 38 36 36 38 33 21 15 21 28 53 67 94 100 100 100 93 80
94 94 27 6 15 24 33 40 40 40 40 41 42 42 42 42 42 42 42 42 40 38 37 36 37 38 39 37 36 34 34 38 40 30 17 15 27 53 72 98 100 100 100
91 86 7 9 19 27 37 41 41 42 43 44 44 45 44 43 42 42 42 42 42 40 38 37 37 38 40 42 42 40 38 35 38 38 38 36 22 15 31 55 84 100 100
92 44 7 11 26 33 41 40 40 43 45 46 44 43 39 37 40 44 46 45 45 42 42 44 44 43 44 44 44 44 42 38 36 37 35 36 36 35 24 17 34 65 96
98 17 7 13 30 39 39 35 34 36 37 38 38 31 31 27 33 45 47 51 48 46 46 46 47 48 46 44 42 41 39 38 36 35 36 35 34 34 34 35 28 17 33

GFSMA_500_rhum_183.txt.gz
RH
20 22 25 28 30 32 33 33 32 32 32 33 34 34 34 33 33 32 32 31 29 27 25 20 17 22 27 14 10 11 27 53 58 66 84 92 68 62 70 74 76 72 59
30 34 36 37 38 39 38 38 38 38 39 42 42 42 40 38 36 34 34 32 32 32 29 30 29 19 18 26 19 10 10 16 31 46 56 76 93 83 78 86 79 81 81
37 41 42 44 45 46 45 46 45 46 47 48 46 44 40 39 33 33 33 34 31 30 32 31 32 32 28 18 22 21 11 11 13 15 24 42 63 95 93 83 75 76 86
40 42 44 48 52 54 52 51 50 50 50 48 45 39 38 33 31 29 35 39 36 34 32 31 34 35 36 35 25 20 20 12 12 15 13 16 69 94 96 86 72 69 77
47 49 54 59 62 62 61 58 53 53 51 49 46 38 42 34 33 33 37 41 44 42 40 38 34 38 40 39 38 37 23 20 13 14 17 14 18 33 29 69 94 77 71
63 65 66 70 73 72 67 59 51 49 52 52 45 43 46 44 44 43 46 46 43 40 38 37 37 36 38 40 41 41 39 34 21 13 13 18 18 16 16 18 53 88 79
75 79 81 82 85 80 72 64 58 57 52 54 46 48 51 46 40 36 33 31 30 29 28 28 27 25 26 25 29 36 39 34 37 27 14 12 16 19 19 18 18 27 40
84 88 89 84 79 73 70 66 62 59 58 58 60 51 43 36 31 24 23 24 23 21 20 18 18 17 17 16 14 14 19 26 26 33 32 16 12 12 14 19 19 18 17
91 89 87 81 80 78 73 77 77 66 60 64 57 47 40 35 29 22 14 12 10 9 8 8 8 8 8 8 7 7 8 10 15 22 27 34 19 13 11 12 16 17 16
83 87 90 82 81 81 81 76 68 71 66 55 47 38 35 26 18 14 10 10 7 4 4 3 3 3 3 3 3 5 6 6 7 10 19 21 35 26 13 13 11 11 11
91 97 84 76 72 53 56 62 62 56 48 44 41 34 22 19 19 9 4 4 5 5 4 4 4 4 4 4 4 10 16 10 7 7 8 14 17 33 31 16 13 13 12
90 86 74 56 49 45 45 45 43 43 43 38 29 20 18 14 5 6 6 6 6 6 6 5 4 3 3 3 4 4 6 17 18 11 10 8 11 14 25 33 19 14 14
71 63 53 51 49 49 45 38 36 42 35 33 24 21 8 9 10 8 10 10 8 8 6 5 5 5 5 5 5 4 5 6 9 21 20 16 11 9 16 19 32 25 15
59 60 52 49 42 30 26 25 32 32 27 28 25 10 14 15 14 14 14 14 12 10 8 8 8 8 8 8 14 21 19 13 9 9 23 25 18 15 9 27 23 31 32
57 49 42 31 31 30 24 20 31 30 32 27 10 16 17 18 18 18 18 18 17 16 15 13 12 11 12 14 23 41 42 33 32 26 25 26 26 25 18 10 15 17 28
48 33 30 35 33 28 16 18 36 38 27 10 15 18 20 21 21 20 21 21 22 21 21 20 19 17 12 12 22 40 47 46 47 67 57 35 29 31 32 23 12 12 15
37 40 49 33 34 16 22 36 40 36 10 14 21 23 23 23 23 23 24 24 24 24 24 25 25 25 23 18 14 15 25 34 45 66 73 78 74 66 48 37 25 17 16
62 57 33 32 22 23 45 45 43 9 12 19 23 26 26 26 26 25 25 25 25 25 24 25 24 25 26 26 26 22 15 14 25 42 66 73 84 98 96 62 41 30 26
61 34 37 31 61 62 52 52 12 9 15 24 27 28 29 29 28 29 29 27 27 26 26 26 25 25 25 25 26 29 29 24 15 23 41 57 78 89 100 100 71 46 38
26 34 57 89 76 74 70 22 8 15 22 26 29 31 32 32 34 34 33 31 31 30 28 26 25 25 26 26 26 26 28 28 31 23 20 35 50 72 88 100 100 86 54
37 42 69 100 80 87 37 6 12 16 21 26 32 37 38 37 38 38 38 38 37 34 32 29 26 26 25 26 26 27 27 26 26 31 33 24 20 40 57 77 98 100 100
18 58 94 97 92 83 6 9 14 25 35 38 38 39 39 40 41 42 40 39 39 38 35 33 30 28 25 23 24 29 32 30 25 26 30 31 34 22 21 43 70 96 100
70 80 90 100 96 55 7 11 20 33 41 41 41 42 43 44 43 42 40 39 41 44 42 38 34 31 29 27 23 20 25 31 32 29 28 31 32 34 35 20 22 52 83
84 100 100 97 98 33 8 12 22 35 41 41 43 42 40 38 38 36 34 30 35 47 44 40 36 34 31 29 26 25 23 25 33 33 34 32 32 34 35 35 33 19 30
100 100 100 88 100 21 8 15 26 39 41 38 37 36 35 33 27 25 31 31 48 51 46 42 38 34 32 31 31 27 24 23 23 26 29 30 29 30 34 36 36 34 30
100 100 100 92 94 9 8 17 30 39 38 36 36 33 28 27 36 49 50 60 56 50 45 40 37 32 29 28 32 33 34 32 29 24 18 16 15 17 24 30 33 34 34